McMinnville, OR

12:27 AM PDT on July 24, 2017 (GMT -0700)
McMinnville Municipal

Weather History for KMMV - April, 2013

Change the Weather History Date:

Monday, April 1, 2013

  Actual Average Record
Temperature  
Mean Temperature 56 °F 48 °F  
Max Temperature 66 °F 58 °F 80 °F (1987)
Min Temperature 45 °F 39 °F 25 °F (1903)
Degree Days  
Heating Degree Days 9 17  
Month to date heating degree days 9 17  
Since 1 July heating degree days 3625 3968  
Cooling Degree Days 0 0  
Month to date cooling degree days 0 0  
Year to date cooling degree days 0 0  
Growing Degree Days 5 (Base 50)    
Moisture  
Dew Point 47 °F    
Average Humidity 78    
Maximum Humidity 93    
Minimum Humidity 63    
Precipitation  
Precipitation 0.00 in 0.14 in 1.20 in (1901)
Month to date precipitation 0.00 0.14  
Year to date precipitation 4.60 14.71  
Snow  
Snow 0.00 in - - ()
Month to date snowfall 0.0  
Snow Depth 0.00 in    
Sea Level Pressure  
Sea Level Pressure 30.10 in    
Wind  
Wind Speed 7 mph (SW)    
Max Wind Speed 15 mph    
Max Gust Speed 20 mph    
Visibility 10 miles    
Events      
T = Trace of Precipitation, MM = Missing Value Source: NWS Daily Summary

Daily Weather History Graph

Daily Weather History Graph

Search for Another Location

Airport or City:

Trip Planner

Search our weather history database for the weather conditions in past years. The results will help you decide how hot, cold, wet, or windy it might be!

Date:

Astronomy

Apr. 01, 2013 Rise Set
Actual Time 6:52 AM PDT 7:40 PM PDT
Civil Twilight 6:22 AM PDT 8:10 PM PDT
Nautical Twilight 5:47 AM PDT 8:46 PM PDT
Astronomical Twilight 5:10 AM PDT 9:23 PM PDT
Moon 1:06 AM PDT (4/1) 10:32 AM PDT (4/1)
Length of Visible Light 13h 48m
Length of Day
12h 48m
Waning Gibbous, 66% of the Moon is Illuminated
Apr 1
Waning Gibbous
Apr 2
Last Quarter
Apr 10
New
Apr 18
First Quarter
Apr 25
Full

Hourly Weather History & Observations

Time (PDT) Temp. Windchill Dew Point Humidity Pressure Visibility Wind Dir Wind Speed Gust Speed Precip Events Conditions
12:53 AM 53.1 °F - 46.0 °F 77% 30.02 in 10.0 mi SSW 8.1 mph - N/A   Mostly Cloudy
1:53 AM 51.1 °F - 45.0 °F 80% 30.03 in 10.0 mi SSW 6.9 mph - N/A   Clear
2:53 AM 48.0 °F - 44.1 °F 86% 30.03 in 10.0 mi SSW 6.9 mph - N/A   Clear
3:53 AM 48.0 °F - 44.1 °F 86% 30.03 in 10.0 mi SW 5.8 mph - N/A   Clear
4:53 AM 46.9 °F - 43.0 °F 86% 30.04 in 10.0 mi SW 5.8 mph - N/A   Partly Cloudy
5:23 AM 46.4 °F 44.3 °F 42.8 °F 87% 30.05 in 10.0 mi SW 4.6 mph - N/A   Mostly Cloudy
6:26 AM 46.4 °F - 44.6 °F 93% 30.06 in 10.0 mi Calm Calm - N/A   Scattered Clouds
6:53 AM 46.0 °F 44.8 °F 43.0 °F 89% 30.06 in 10.0 mi NW 3.5 mph - N/A   Clear
8:53 AM 54.0 °F - 48.9 °F 83% 30.09 in 10.0 mi SSW 5.8 mph - N/A   Clear
9:53 AM 57.0 °F - 48.9 °F 74% 30.10 in 10.0 mi SW 5.8 mph - N/A   Clear
10:20 AM 57.2 °F - 48.2 °F 72% 30.11 in 10.0 mi Calm Calm - N/A   Mostly Cloudy
10:53 AM 59.0 °F - 50.0 °F 72% 30.11 in 10.0 mi SSW 4.6 mph - N/A   Overcast
11:29 AM 60.8 °F - 50.0 °F 68% 30.12 in 10.0 mi South 6.9 mph - N/A   Scattered Clouds
11:53 AM 61.0 °F - 50.0 °F 67% 30.13 in 10.0 mi SSW 9.2 mph - N/A   Mostly Cloudy
12:53 PM 63.0 °F - 51.1 °F 65% 30.12 in 10.0 mi SW 10.4 mph - N/A   Mostly Cloudy
1:53 PM 64.9 °F - 51.1 °F 61% 30.12 in 10.0 mi SSW 10.4 mph - N/A   Mostly Cloudy
2:53 PM 64.9 °F - 51.1 °F 61% 30.11 in 10.0 mi SSW 8.1 mph - N/A   Scattered Clouds
3:53 PM 64.0 °F - 51.1 °F 63% 30.11 in 10.0 mi SSE 8.1 mph - N/A   Mostly Cloudy
4:53 PM 63.0 °F - 51.1 °F 65% 30.12 in 10.0 mi South 11.5 mph - N/A   Mostly Cloudy
5:53 PM 61.0 °F - 50.0 °F 67% 30.12 in 10.0 mi SW 11.5 mph - N/A   Overcast
6:53 PM 57.9 °F - 48.0 °F 70% 30.14 in 10.0 mi SW 9.2 mph - N/A   Overcast
7:53 PM 55.9 °F - 46.9 °F 72% 30.15 in 10.0 mi WSW 9.2 mph - N/A   Overcast
8:53 PM 55.0 °F - 46.9 °F 74% 30.16 in 10.0 mi WSW 8.1 mph - N/A   Overcast
9:53 PM 54.0 °F - 46.9 °F 77% 30.17 in 10.0 mi SSW 5.8 mph - N/A   Overcast
10:53 PM 52.0 °F - 46.0 °F 80% 30.18 in 10.0 mi SSW 10.4 mph - N/A   Overcast
11:53 PM 51.1 °F - 45.0 °F 80% 30.18 in 10.0 mi SW 5.8 mph - N/A   Overcast